COSMOS 1299

Satellite information

Favourite Embed

Satellite Type and Status

PAYLOADIN ORBIT

Key statistics

Satellite COSMOS 1299 at a glance.

Uptime

16182

Days in orbit

Revolutions

≈ 13.9

Per day

Orbit

LEO

Low Earth Orbit

Inclination

65.1

Latest

Satellite identification and parameters

Extended collection of information and parameters for COSMOS 1299.

Object identification

Identified? True

Debris? False

Object name: COSMOS 1299

International designator: 1981-081A

Object number (NORAD): 12783

Object ID (CCSDS): 12783

Country: COMMONWEALTH OF INDEPENDENT STATES (CIS)

Current information (Y/N): Y

RCS size: LARGE

Orbital parameters

Period: 103.932 minutes

Inclination: 65.115 deg

SMA: 7322.49 km

Apoapsis: 981.969 km

Periapsis: 906.741 km

RAAN: 205.885 deg

Eccentricy: 0.00513676

Argument of periapsis: 247.9192 deg

Mean anomaly: 111.6411 deg

Mean motion: 13.8552579 rev/day

Mean motion (dot): -0.00000051 rev/day2

B* drag term: 0.000032710895 1/REarth

Two-line elements (TLE)

Creation date: Dec. 12, 2025, 10:14 a.m.

Reference frame: TEME

Reference center: EARTH

Epoch: Dec. 12, 2025, 1:35 a.m. UTC

TLE line 0: 0 COSMOS 1299

TLE line 1: 1 12783U 81081A 25346.06643761 -.00000051 00000-0 32711-4 0 9997

TLE line 2: 2 12783 65.1150 205.8850 0051368 247.9192 111.6411 13.85525790241351

Live tracking on map

Real-time ground track for satellite COSMOS 1299.

In-orbit conjunctions

A list of the most updated potential collisions computed for object COSMOS 1299.

Target Orbit TCA Probability of collision Miss distance Type
LANDSAT 1 (ERTS 1) SSO 2025-11-16 10:06:16 0.0001332309 574.0 (m) PAYLOAD
FENGYUN 1C DEB SSO 2025-11-08 15:06:59 0.000465234 168.0 (m) DEBRIS
FENGYUN 1C DEB SSO 2025-04-12 00:28:41 0.0002969467 540.0 (m) DEBRIS
COSMOS 1275 DEB LEO 2025-01-15 14:41:33 0.0003978525 323.0 (m) DEBRIS
FENGYUN 1C DEB SSO 2024-11-17 05:19:27 0.0001528383 348.0 (m) DEBRIS

Associated space launch

Active radar satellite for ocean surveillance powered by a nuclear reactor.

COSMOS 1299 was lifted into orbit during the mission ‘Tsiklon-2 | US-A 19’, on board a Tsiklon-2 space rocket.

The launch took place on Aug. 24, 1981, 4:37 p.m. from 90.

For more information about the launch, click the button.

Launch to space Tsiklon-2 | US-A 19
Tsiklon-2 | US-A 19

Agency: N/A

Status: Launch Successful

Launch date: Aug. 24, 1981, 4:37 p.m. UTC

Rocket: Tsiklon-2

Launch pad: 90

Location: Baikonur Cosmodrome, Republic of Kazakhstan

...

Latest news about this satellite

There are no fresh news available about this satellite. Check back as we update our databases every day.


Newsletter sign-up

Weekly statistics, charts and insights to help you stay on top of the space industry.